Location: Melbourne
(37.8170°S, 144.9670°E)
Time: 21:58:31
(UTC+11:00)

ISS - Visible Passes

Search period start: 18 October 2017 00:00
Search period end: 28 October 2017 00:00
Orbit: 401 x 408 km, 51.6° (Epoch: 19 October)

Date Brightness Start Highest point End Pass type
(mag) Time Alt. Az. Time Alt. Az. Time Alt. Az.
18 Oct -1.2 05:34:16 10° SSW 05:36:54 21° SSE 05:39:30 10° ESE visible
19 Oct -0.8 04:42:26 10° SSW 04:44:23 14° SSE 04:46:20 10° ESE visible
20 Oct -0.5 03:50:50 10° S 03:51:47 11° SSE 03:52:45 10° SSE visible
20 Oct -2.3 05:25:50 10° SW 05:29:02 39° SE 05:32:10 10° ENE visible
21 Oct -1.4 04:33:48 10° SSW 04:36:36 24° SSE 04:39:23 10° E visible
22 Oct -0.8 03:44:00 16° SSE 03:44:05 16° SSE 03:46:17 10° ESE visible
22 Oct -3.9 05:17:35 10° SW 05:20:57 83° NW 05:24:15 10° NE visible
23 Oct -2.9 04:27:42 36° SSW 04:28:36 49° SE 04:31:51 10° ENE visible
23 Oct -3.4 21:03:46 10° NNW 21:06:54 39° NE 21:07:07 39° NE visible
24 Oct -3.0 05:12:05 28° WNW 05:12:39 30° NW 05:15:35 10° NNE visible
24 Oct -2.3 20:12:14 10° N 20:14:43 20° NE 20:17:14 10° E visible
24 Oct -2.4 21:47:50 10° WNW 21:51:00 39° SW 21:51:57 31° S visible
25 Oct -3.6 20:55:17 10° NW 20:58:37 76° SW 21:01:59 10° SE visible
25 Oct -0.7 22:33:37 10° WSW 22:35:35 14° SSW 22:36:01 14° SSW visible
26 Oct -1.1 21:40:22 10° WSW 21:42:58 21° SSW 21:45:35 10° SSE visible
27 Oct -1.9 20:47:22 10° W 20:50:26 32° SSW 20:53:30 10° SSE visible
27 Oct -0.3 22:27:36 10° SSW 22:27:44 10° SSW 22:27:53 10° S visible
